Weather Roundup
Issued by NWS Chicago, IL

Home | Current Version | Previous Version | Text Only | Print | Product List | Glossary Off
Versions: 1 2 3 4 5 6 7 8 9 10 11 12 13 14 15 16 17 18 19 20 21 22 23 24 25 26 27 28 29 30 31 32 33 34 35 36 37 38 39 40 41 42 43 44 45 46 47 48 49 50

593
NZUS59 KLOT 290808
HRRLOT

CHICAGO AREA WEATHER ROUNDUP
NATIONAL WEATHER SERVICE CHICAGO/ROMEOVILLE IL
300 AM CDT FRI APR 29 2016

NOTE: "FAIR" INDICATES FEW OR NO CLOUDS BELOW 12,000 FEET WITH NO
SIGNIFICANT WEATHER AND/OR OBSTRUCTIONS TO VISIBILITY.

* THESE STATIONS ARE NOT UNDER NWS QUALITY CONTROL. THEY ALSO MAY NOT
  REPORT WEATHER SUCH AS PRECIPITATION OR FOG.

ILZ005-006-012>014-019>023-290900-
NORTHEAST ILLINOIS

CITY           SKY/WX    TMP DP  RH WIND       PRES   REMARKS
OHARE          LGT RAIN  42  41  96 N8        30.00F FOG
MIDWAY         DRIZZLE   45  41  86 NW6       30.00F FOG
AURORA         CLOUDY    44  42  93 N6        30.02F FOG
LANSING*       CLOUDY    45  43  93 NW3       30.00F FOG
JOLIET*        CLOUDY    46  44  93 N5        30.02R FOG
WAUKEGAN       CLOUDY    41  41 100 N5        30.02S FOG
DUPAGE AIRPORT CLOUDY    43  40  89 N7        30.01F FOG
WHEELING       CLOUDY    42  41  96 NW6       30.03S FOG
KANKAKEE*      MOCLDY    47  44  90 CALM      30.00R FOG
MORRIS*        CLOUDY    45  42  90 CALM      30.00F FOG
LEWIS AIRPORT* CLOUDY    44  42  92 N6        30.01F FOG
$$

WIZ051-052-058>065-066-070>072-290900-
SOUTHEAST WISCONSIN

CITY           SKY/WX    TMP DP  RH WIND       PRES   REMARKS
MILWAUKEE      LGT RAIN  40  37  89 N7        30.04R FOG
KENOSHA*       LGT RAIN  41  39  93 N6        30.03S FOG
RACINE*        LGT RAIN  41  37  86 N9        30.05R
BURLINGTON     CLOUDY    39  38  97 N6        30.04S FOG
WAUKESHA       LGT RAIN  36  36 100 N3        30.06R
WEST BEND      DRIZZLE   39  34  81 CALM      30.05S
$$

INZ001>003-010>013-019-020-290900-
NORTHWEST INDIANA

CITY           SKY/WX    TMP DP  RH WIND       PRES   REMARKS
GARY*          DRIZZLE   47  47 100 CALM      30.01F
MICHIGAN CITY* NOT AVBL
RENSSELAER*    NOT AVBL
VALPARAISO     CLOUDY    45  44  97 N5        29.99F FOG
$$

LMZ740>746-290900-
SOUTHERN LAKE MICHIGAN

STATION/POSITION TIME  SKY/WX   TEMP WIND        PRES    VSBY
                                AIR  DIR/SP/G
                 (UTC)          (F)  (DEG/KT/KT) (MB)    (MI)
HARRISON CRIB    0700            44  330/ 11/ 12   N/A
BURNHAM HARBOR   0800            44  280/  6/  7   N/A
CALUMET HARBOR   0700            45  300/  4/  6 1015.7R
BURNS HARBOR     0714            44  290/  8/ 11 1016.6R
MICHIGAN CITY    0700            45  200/  7/  8   N/A
$$

ABBREVIATIONS USED IN REMARKS
   TC - TEMPERATURE IN CELSIUS
  WCI - WIND CHILL INDEX
   HX - HEAT INDEX
  VSB - VISIBILITY
$$




USA.gov is the U.S. government's official web portal to all federal, state and local government web resources and services.